[[{"header":{"parameterUnit":"m.s-1","parameterCategory":1,"la1":30.2991,"la2":30.254,"lo1":-89.0895,"lo2":-89.0444,"dy":0.0017,"dx":0.0017,"nx":28,"ny":28,"refTime":"2023-08-05T21:00:00:Z","depth":0,"parameterNumber":2,"parameterNumberName":"U-component_of_WINDS"},"data":[0,0,0,0,0,0,0,0,0,0,0,0,0,0,0,0,0,0,0,0,0,0,0,0,0,0,0,0,0,0,0,0,0,0,0,0,0,0,0,0,0,0,0,0,0,0,0,0,0,0,0,0,0,0,0,0,0,0,2.6541,2.6543,0,2.6662,2.6664,2.6665,2.6688,2.6687,2.6686,2.6685,2.6814,2.6818,2.6822,0,0,0,0,0,0,0,0,0,0,0,0,0,2.6334,2.6338,2.6541,2.6543,2.6544,2.6662,2.6664,2.6666,2.6688,2.6687,2.6686,2.6685,2.6812,2.6817,2.6823,0,0,0,0,0,0,0,0,0,0,0,0,0,2.6436,2.6339,2.6541,2.657,2.6573,2.6662,2.6664,2.6666,2.6689,2.6687,2.6686,2.6684,2.6811,2.6817,2.6823,2.6893,0,0,2.6843,2.6846,0,0,0,0,0,0,0,0,2.6431,2.6444,2.6564,2.6568,2.6572,2.6659,2.6638,2.6742,2.6689,2.6645,2.6685,2.6683,2.6764,2.6774,2.68,2.6899,2.6904,2.6844,2.6848,2.685,2.6852,0,0,0,0,0,0,0,2.6423,2.6439,2.6589,2.6566,2.6571,2.6578,2.6591,2.6658,2.6711,2.6649,2.6651,2.6664,2.6766,2.6794,2.6803,2.6906,2.6844,2.6849,2.6853,2.6856,2.707,2.7071,0,0,0,0,0,0,2.6411,2.6433,2.6585,2.6593,2.6496,2.6583,2.6597,2.6632,2.671,2.6721,2.6666,2.6665,2.6783,2.6795,2.6808,2.6894,2.685,2.6856,2.686,2.7068,2.707,2.7072,0,0,0,0,0,0,2.6406,2.6424,2.6581,2.6514,2.6534,2.6588,2.6627,2.6636,2.6663,2.6723,2.6733,2.6684,2.6783,2.6799,2.6871,2.6899,2.6859,2.6865,2.7066,2.7069,2.7071,2.7068,0,0,0,0,0,0,2.64,2.6422,2.6448,2.6514,2.6537,2.6641,2.6629,2.6639,2.6674,2.6675,2.6743,2.6753,2.6783,2.6862,2.6878,2.6907,2.687,2.7064,2.7067,2.707,2.7066,2.707,2.7074,0,0,0,0,0,2.6393,2.6443,2.6449,2.6467,2.657,2.6642,2.6656,2.6687,2.6676,2.6703,2.6742,2.6751,2.6894,2.6869,2.6887,2.6919,2.7062,2.7066,2.707,2.7064,2.7069,2.7074,0,0,0,0,0,0,2.638,2.6452,2.646,2.6533,2.6581,2.6646,2.6681,2.6692,2.6745,2.6744,2.6782,2.6798,2.6868,2.6902,2.6872,2.6991,2.6977,2.6985,2.6967,2.6972,2.6976,2.6966,2.6876,0,0,0,0,0,2.6385,2.6436,2.6497,2.6556,2.658,2.6626,2.6658,2.6679,2.6731,2.6752,2.6796,2.6847,2.6904,2.694,2.6995,2.7071,2.7087,2.7103,2.7107,2.711,2.7116,2.7159,2.7167,2.7085,2.7085,2.7085,0,0,2.6398,2.6443,2.6473,2.6554,2.6594,2.6647,2.6643,2.6699,2.6739,2.6761,2.6831,2.6866,2.6926,2.7001,2.7036,2.7031,2.7142,2.7115,2.7117,2.7121,2.7164,2.7172,2.7178,2.7088,2.7087,2.7087,0,0,2.6447,2.6486,2.6539,2.6579,2.6639,2.667,2.6683,2.6747,2.677,2.6841,2.6859,2.6908,2.7005,2.7047,2.7081,2.7148,2.7158,2.7165,2.7186,2.7227,2.7234,2.724,2.7263,2.7271,2.7171,2.7171,2.7171,0,2.6454,2.6533,2.6566,2.6621,2.6657,2.6678,2.6733,2.6771,2.6846,2.6871,2.6864,2.6986,2.7028,2.7113,2.7129,2.7156,2.7173,2.7156,2.723,2.7236,2.7242,2.7265,2.7274,2.7171,2.7171,2.7171,2.7171,0,2.654,2.6595,2.6631,2.6702,2.6742,2.6797,2.6839,2.6876,2.6894,2.6925,2.6999,2.705,2.7117,2.7139,2.7157,2.7227,2.7222,2.7222,2.7208,2.725,2.7272,2.7281,2.7172,2.7172,2.7172,2.7172,0,0,2.6582,2.6671,2.6684,2.6717,2.6785,2.6829,2.6886,2.695,2.6981,2.7033,2.7082,2.7164,2.7165,2.7203,2.7227,2.7263,2.7313,2.726,2.7262,2.7267,2.7393,2.7392,2.7401,2.7321,2.7323,2.7324,2.7388,0,2.6639,2.6739,2.677,2.6855,2.6906,2.6928,2.6978,2.7026,2.7058,2.7108,2.7144,2.7201,2.7198,2.7222,2.7259,2.7299,2.7339,2.7295,2.7367,2.737,2.735,2.7413,2.7411,2.7469,2.7397,2.7399,2.74,0,2.6717,2.677,2.6858,2.6921,2.6944,2.6988,2.7049,2.7096,2.7152,2.7173,2.7217,2.7238,2.7299,2.7283,2.737,2.7339,2.7371,2.7395,2.7399,2.7406,2.7386,2.7421,2.7488,2.7496,2.7414,2.7413,2.7412,0,2.6739,2.6832,2.6897,2.6925,2.7,2.703,2.7063,2.7117,2.7154,2.7209,2.7233,2.7294,2.7328,2.7376,2.7413,2.7398,2.7496,2.7483,2.7515,2.7514,2.7534,2.7532,2.7606,2.7556,2.7556,2.7556,2.7556,0,2.6798,2.6851,2.6907,2.6947,2.7008,2.7045,2.7105,2.714,2.7188,2.7237,2.7261,2.7306,2.7352,2.7404,2.7434,2.7501,2.7516,2.7536,2.7543,2.7533,2.753,2.7553,2.755,2.7558,2.7558,2.7557,2.7557,0,2.6831,2.6871,2.6943,2.7008,2.7026,2.7068,2.7125,2.7165,2.7199,2.726,2.7276,2.7329,2.7392,2.7434,2.7514,2.7534,2.7606,2.7613,2.7587,2.759,2.762,2.7616,2.7711,2.7725,2.7666,2.7667,2.7667,0,2.6865,2.6906,2.6976,2.7009,2.7042,2.7096,2.7133,2.7172,2.721,2.7278,2.7311,2.7374,2.7427,2.7526,2.7572,2.7634,2.7642,2.7671,2.7651,2.764,2.7642,2.7638,2.7643,2.7674,2.7674,2.7674,2.7675,0,2.6921,2.6939,2.6991,2.7051,2.7094,2.7144,2.7193,2.7219,2.7267,2.7309,2.7372,2.7413,2.7495,2.7558,2.7624,2.766,2.7676,2.7681,2.7691,2.7681,2.7663,2.7673,2.7594,2.7678,2.7678,2.7678,2.7677,2.7677,2.6956,2.6994,2.7049,2.7106,2.7148,2.7193,2.7235,2.7273,2.7326,2.7394,2.7415,2.7481,2.7538,2.7628,2.7665,2.7718,2.7716,2.7731,2.7735,2.7738,2.7737,2.7656,2.7731,2.7731,2.7731,2.7731,2.7731,0,2.7013,2.7049,2.7102,2.717,2.7216,2.7226,2.7282,2.732,2.7377,2.7428,2.7479,2.7552,2.7614,2.7666,2.773,2.7762,2.7771,2.7778,2.7775,2.7783,2.7736,2.772,2.7769,2.7769,2.7769,2.7769,2.7769,2.7769,2.7047,2.7112,2.7137,2.7223,2.726,2.7324,2.7355,2.7398,2.7438,2.7518,2.7569,2.7602,2.7654,2.7723,2.778,2.7794,2.7816,2.7821,2.7836,2.7791,2.7786,2.7782,2.7767,2.7826,2.7826,2.7879,2.7879,2.7879]},{"header":{"parameterUnit":"m.s-1","parameterCategory":1,"la1":30.2991,"la2":30.254,"lo1":-89.0895,"lo2":-89.0444,"dy":0.0017,"dx":0.0017,"nx":28,"ny":28,"refTime":"2023-08-05T21:00:00:Z","depth":0,"parameterNumber":3,"parameterNumberName":"V-component_of_WINDS"},"data":[0,0,0,0,0,0,0,0,0,0,0,0,0,0,0,0,0,0,0,0,0,0,0,0,0,0,0,0,0,0,0,0,0,0,0,0,0,0,0,0,0,0,0,0,0,0,0,0,0,0,0,0,0,0,0,0,0,0,4.719,4.7191,0,4.725,4.725,4.7251,4.7267,4.7267,4.7267,4.7266,4.732,4.7322,4.7324,0,0,0,0,0,0,0,0,0,0,0,0,0,4.7083,4.7085,4.719,4.7191,4.7192,4.725,4.725,4.7251,4.7267,4.7267,4.7267,4.7266,4.732,4.7322,4.7324,0,0,0,0,0,0,0,0,0,0,0,0,0,4.7134,4.7085,4.719,4.7207,4.7209,4.725,4.725,4.7251,4.7268,4.7267,4.7267,4.7266,4.7319,4.7322,4.7324,4.735,0,0,4.7332,4.7333,0,0,0,0,0,0,0,0,4.7131,4.7138,4.7204,4.7206,4.7208,4.7251,4.7232,4.7284,4.7268,4.7245,4.7266,4.7266,4.7297,4.7301,4.7313,4.7352,4.7355,4.7332,4.7334,4.7335,4.7336,0,0,0,0,0,0,0,4.7128,4.7136,4.7214,4.7205,4.7207,4.7209,4.7216,4.7242,4.7273,4.7247,4.7248,4.7256,4.7298,4.7311,4.7315,4.7355,4.7332,4.7334,4.7336,4.7337,4.7416,4.7417,0,0,0,0,0,0,4.7122,4.7133,4.7212,4.7215,4.7168,4.7211,4.7219,4.7238,4.7273,4.7278,4.7256,4.7256,4.7307,4.7312,4.7317,4.7348,4.7335,4.7337,4.7339,4.7416,4.7416,4.7417,0,0,0,0,0,0,4.712,4.7129,4.7209,4.7174,4.7185,4.7214,4.7234,4.7239,4.7252,4.728,4.7284,4.7264,4.7307,4.7313,4.7342,4.735,4.7339,4.7341,4.7415,4.7416,4.7417,4.7412,0,0,0,0,0,0,4.7117,4.7128,4.714,4.7175,4.7187,4.7235,4.7235,4.724,4.7257,4.7258,4.7288,4.7293,4.7307,4.7338,4.7344,4.7354,4.7343,4.7414,4.7415,4.7416,4.7411,4.7412,4.7413,0,0,0,0,0,4.7113,4.7135,4.7141,4.715,4.7203,4.7236,4.7242,4.726,4.7258,4.7269,4.7286,4.7292,4.7348,4.734,4.7348,4.7358,4.7414,4.7415,4.7416,4.7411,4.7412,4.7413,0,0,0,0,0,0,4.7099,4.714,4.7147,4.7182,4.7205,4.7239,4.7253,4.7261,4.7284,4.7284,4.7303,4.7309,4.7336,4.735,4.734,4.7384,4.7381,4.7384,4.7374,4.7376,4.7377,4.7372,4.7345,0,0,0,0,0,4.71,4.7126,4.716,4.7187,4.7199,4.7224,4.7239,4.7251,4.7275,4.7285,4.7304,4.7326,4.7348,4.7363,4.7385,4.7413,4.7419,4.7424,4.7425,4.7426,4.7428,4.7442,4.7444,4.7421,4.7421,4.7421,0,0,4.7102,4.7128,4.7143,4.7185,4.7205,4.7229,4.7232,4.7258,4.7275,4.7288,4.7317,4.7331,4.7356,4.7385,4.7398,4.7397,4.7435,4.7427,4.7428,4.7429,4.7443,4.7446,4.7447,4.7422,4.7422,4.7422,0,0,4.7119,4.7142,4.7167,4.7187,4.7218,4.7234,4.724,4.7272,4.7283,4.7313,4.7322,4.7342,4.7381,4.7398,4.7412,4.7433,4.7439,4.744,4.7445,4.7459,4.746,4.7462,4.7469,4.7471,4.7442,4.7442,4.7442,0,4.7117,4.7156,4.7177,4.7203,4.722,4.7235,4.7258,4.7276,4.7311,4.7322,4.7321,4.737,4.7387,4.7419,4.7425,4.7436,4.7441,4.7436,4.7459,4.7461,4.7463,4.7469,4.7472,4.7442,4.7442,4.7442,4.7442,0,4.7152,4.7179,4.7194,4.7231,4.725,4.7274,4.7296,4.7312,4.7322,4.7337,4.7366,4.7388,4.7415,4.7423,4.7432,4.7456,4.7454,4.7456,4.7453,4.7464,4.7471,4.7473,4.7442,4.7442,4.7442,4.7442,0,0,4.7161,4.7209,4.7214,4.7231,4.7265,4.7285,4.7309,4.7337,4.735,4.7373,4.7392,4.7424,4.7426,4.7442,4.7453,4.7465,4.7479,4.7465,4.7466,4.7466,4.7505,4.7503,4.7506,4.7483,4.7484,4.7484,4.7502,0,4.7181,4.7227,4.7246,4.7282,4.7306,4.732,4.734,4.7362,4.7377,4.7398,4.7413,4.7435,4.7437,4.7446,4.7459,4.7475,4.7487,4.7474,4.7499,4.7499,4.7492,4.7509,4.7507,4.7524,4.7505,4.7506,4.7506,0,4.7211,4.7237,4.7276,4.7307,4.7318,4.7336,4.7363,4.7383,4.7407,4.7417,4.7434,4.7445,4.7467,4.7463,4.7494,4.7484,4.7495,4.7504,4.7505,4.7508,4.7503,4.7511,4.753,4.7532,4.751,4.751,4.751,0,4.7212,4.7257,4.7286,4.7299,4.7337,4.7349,4.7364,4.7389,4.7404,4.7426,4.7436,4.746,4.7473,4.749,4.7505,4.7501,4.7534,4.7531,4.7541,4.754,4.7546,4.7546,4.7566,4.7555,4.7555,4.7555,4.7555,0,4.7232,4.7255,4.7287,4.7305,4.733,4.7351,4.7374,4.739,4.7411,4.743,4.7443,4.746,4.748,4.7499,4.7511,4.7533,4.7539,4.7546,4.7548,4.7544,4.7543,4.7551,4.755,4.7555,4.7555,4.7555,4.7555,0,4.7238,4.7261,4.7293,4.7326,4.7335,4.7352,4.7379,4.7395,4.7411,4.7434,4.7441,4.7464,4.7487,4.7505,4.7534,4.7541,4.7565,4.7568,4.7558,4.7559,4.7567,4.7566,4.7593,4.7597,4.7583,4.7583,4.7583,0,4.7249,4.7267,4.7303,4.7318,4.7334,4.7358,4.7374,4.7394,4.741,4.7439,4.7451,4.7475,4.7496,4.7531,4.7549,4.7571,4.7574,4.7582,4.7577,4.7572,4.7573,4.7571,4.7573,4.7582,4.7582,4.7582,4.7582,0,4.7266,4.7276,4.73,4.7328,4.7348,4.737,4.7393,4.7403,4.7427,4.7444,4.7469,4.7484,4.7515,4.7538,4.7562,4.7575,4.7582,4.7584,4.7587,4.7583,4.7575,4.7579,4.7559,4.7583,4.7583,4.7583,4.7583,4.7583,4.7274,4.729,4.7318,4.7344,4.7364,4.7384,4.7401,4.7419,4.7441,4.7469,4.7479,4.7504,4.7526,4.7559,4.7572,4.759,4.759,4.7595,4.7596,4.7597,4.7596,4.7573,4.7595,4.7595,4.7595,4.7595,4.7595,0,4.729,4.7309,4.7333,4.7365,4.7385,4.7392,4.7417,4.7433,4.7455,4.7477,4.7497,4.7524,4.7547,4.7567,4.7589,4.76,4.7604,4.7605,4.7604,4.7607,4.7595,4.759,4.7602,4.7602,4.7602,4.7602,4.7602,4.7602,4.7301,4.733,4.7343,4.738,4.7398,4.7424,4.7438,4.7456,4.7473,4.7504,4.7523,4.7537,4.7557,4.7581,4.7601,4.7606,4.7614,4.7614,4.762,4.7609,4.7608,4.7607,4.7602,4.7616,4.7616,4.763,4.763,4.763]}]]